Weather History for K3MW - November, 2012

Change the Weather History Date:

Sunday, November 25, 2012

  Actual Average Record
Temperature  
Mean Temperature 32 °F -  
Max Temperature 37 °F - - ()
Min Temperature 26 °F - - ()
Degree Days  
Heating Degree Days 34    
Moisture  
Dew Point 8 °F    
Average Humidity 40    
Maximum Humidity 80    
Minimum Humidity 22    
Precipitation  
Precipitation 0.00 in - - ()
Sea Level Pressure  
Sea Level Pressure 29.92 in    
Wind  
Wind Speed 14 mph (WSW)    
Max Wind Speed 22 mph    
Max Gust Speed 38 mph    
Visibility 10 miles    
Events      
T = Trace of Precipitation, MM = Missing Value Source: NWS Daily Summary

Daily Weather History Graph

Daily Weather History Graph

Search for Another Location

Airport or City:

Trip Planner

Search our weather history database for the weather conditions in past years. The results will help you decide how hot, cold, wet, or windy it might be!

Date:

Astronomy

Nov. 25, 2012 Rise Set
Actual Time 7:05 AM MST 4:42 PM MST
Civil Twilight 6:35 AM MST 5:12 PM MST
Nautical Twilight 6:01 AM MST 5:46 PM MST
Astronomical Twilight 5:28 AM MST 6:19 PM MST
Moon 3:01 PM MST (11/25) 4:21 AM MST (11/25)
Length of Visible Light 10h 37m
Length of Day
9h 37m
Waxing Gibbous, 93% of the Moon is Illuminated
Nov 25
Waxing Gibbous
Nov 28
Full
Dec 6
Last Quarter
Dec 13
New
Dec 19
First Quarter

Hourly Weather History & Observations

Time (MST) Temp. Windchill Dew Point Humidity Pressure Visibility Wind Dir Wind Speed Gust Speed Precip Events Conditions
12:16 AM 32.0 °F 21.6 °F 6.8 °F 35% 30.01 in 10.0 mi SW 15.0 mph 21.9 mph N/A   Clear
12:36 AM 32.0 °F 21.2 °F 5.0 °F 32% 30.00 in 10.0 mi WSW 16.1 mph 20.7 mph N/A   Clear
12:56 AM 32.0 °F 23.0 °F 5.0 °F 32% 30.00 in 10.0 mi WSW 11.5 mph - N/A   Clear
1:16 AM 32.0 °F 22.5 °F 5.0 °F 32% 29.99 in 10.0 mi WSW 12.7 mph 20.7 mph N/A   Clear
1:36 AM 32.0 °F 21.6 °F 5.0 °F 32% 29.98 in 10.0 mi WSW 15.0 mph 20.7 mph N/A   Clear
1:56 AM 32.0 °F 22.1 °F 5.0 °F 32% 29.98 in 10.0 mi WSW 13.8 mph 23.0 mph N/A   Clear
2:16 AM 32.0 °F 21.2 °F 5.0 °F 32% 29.98 in 10.0 mi WSW 16.1 mph 24.2 mph N/A   Clear
2:36 AM 32.0 °F 21.6 °F 5.0 °F 32% 29.98 in 10.0 mi WSW 15.0 mph 19.6 mph N/A   Clear
2:56 AM 32.0 °F 22.1 °F 5.0 °F 32% 29.97 in 10.0 mi WSW 13.8 mph - N/A   Clear
3:16 AM 32.0 °F 21.6 °F 5.0 °F 32% 29.97 in 10.0 mi SW 15.0 mph 19.6 mph N/A   Clear
3:36 AM 32.0 °F 22.1 °F 5.0 °F 32% 29.96 in 10.0 mi SW 13.8 mph - N/A   Clear
3:56 AM 32.0 °F 21.6 °F 5.0 °F 32% 29.96 in 10.0 mi SW 15.0 mph - N/A   Clear
4:16 AM 32.0 °F 21.6 °F 5.0 °F 32% 29.96 in 10.0 mi SW 15.0 mph 19.6 mph N/A   Clear
4:36 AM 32.0 °F 20.8 °F 5.0 °F 32% 29.95 in 10.0 mi SW 17.3 mph - N/A   Clear
4:56 AM 32.0 °F 21.2 °F 5.0 °F 32% 29.94 in 10.0 mi SW 16.1 mph 23.0 mph N/A   Clear
5:16 AM 32.0 °F 21.6 °F 5.0 °F 32% 29.94 in 10.0 mi SW 15.0 mph 20.7 mph N/A   Clear
5:36 AM 32.0 °F 20.5 °F 3.2 °F 30% 29.94 in 10.0 mi SW 18.4 mph 21.9 mph N/A   Clear
5:56 AM 32.0 °F 21.2 °F 3.2 °F 30% 29.94 in 10.0 mi SSW 16.1 mph - N/A   Clear
6:16 AM 32.0 °F 22.1 °F 1.4 °F 27% 29.94 in 10.0 mi SW 13.8 mph - N/A   Clear
6:36 AM 32.0 °F 21.6 °F 1.4 °F 27% 29.94 in 10.0 mi SW 15.0 mph - N/A   Clear
6:56 AM 32.0 °F 21.2 °F -0.4 °F 25% 29.93 in 10.0 mi SW 16.1 mph 23.0 mph N/A   Clear
7:16 AM 32.0 °F 21.6 °F -0.4 °F 25% 29.94 in 10.0 mi WSW 15.0 mph 21.9 mph N/A   Clear
7:36 AM 32.0 °F 21.2 °F -0.4 °F 25% 29.93 in 10.0 mi SSW 16.1 mph 21.9 mph N/A   Clear
7:56 AM 32.0 °F 20.8 °F -0.4 °F 25% 29.93 in 10.0 mi SSW 17.3 mph - N/A   Clear
8:16 AM 32.0 °F 21.2 °F -0.4 °F 25% 29.93 in 10.0 mi SW 16.1 mph 23.0 mph N/A   Clear
8:36 AM 32.0 °F 21.6 °F -2.2 °F 23% 29.93 in 10.0 mi SSW 15.0 mph 21.9 mph N/A   Clear
8:56 AM 32.0 °F 21.2 °F -2.2 °F 23% 29.93 in 10.0 mi SSW 16.1 mph - N/A   Clear
9:16 AM 32.0 °F 21.6 °F -2.2 °F 23% 29.92 in 10.0 mi SSW 15.0 mph 20.7 mph N/A   Clear
9:36 AM 33.8 °F 23.9 °F -2.2 °F 22% 29.92 in 10.0 mi SW 15.0 mph - N/A   Clear
9:56 AM 33.8 °F 24.3 °F -0.4 °F 23% 29.92 in 10.0 mi WSW 13.8 mph - N/A   Clear
10:16 AM 33.8 °F 23.9 °F -0.4 °F 23% 29.92 in 10.0 mi WSW 15.0 mph 23.0 mph N/A   Clear
10:36 AM 33.8 °F 23.9 °F 1.4 °F 25% 29.92 in 10.0 mi WSW 15.0 mph 27.6 mph N/A   Clear
10:56 AM 33.8 °F 24.3 °F 3.2 °F 28% 29.92 in 10.0 mi West 13.8 mph 20.7 mph N/A   Clear
11:16 AM 33.8 °F 23.5 °F 3.2 °F 28% 29.90 in 10.0 mi WSW 16.1 mph 26.5 mph N/A   Clear
11:36 AM 35.6 °F 26.6 °F 3.2 °F 26% 29.90 in 10.0 mi West 13.8 mph 23.0 mph N/A   Clear
11:56 AM 35.6 °F 26.2 °F 3.2 °F 26% 29.89 in 10.0 mi West 15.0 mph 20.7 mph N/A   Clear
12:16 PM 35.6 °F 27.1 °F 3.2 °F 26% 29.88 in 10.0 mi West 12.7 mph 21.9 mph N/A   Clear
12:36 PM 35.6 °F 28.0 °F 5.0 °F 28% 29.87 in 10.0 mi West 10.4 mph - N/A   Clear
12:56 PM 35.6 °F 27.1 °F 5.0 °F 28% 29.87 in 10.0 mi WNW 12.7 mph 24.2 mph N/A   Clear
1:16 PM 35.6 °F 24.8 °F 6.8 °F 30% 29.86 in 10.0 mi West 19.6 mph 25.3 mph N/A   Scattered Clouds
1:36 PM 37.4 °F 28.5 °F 8.6 °F 30% 29.85 in 10.0 mi West 15.0 mph 24.2 mph N/A   Scattered Clouds
1:56 PM 35.6 °F 25.5 °F 8.6 °F 33% 29.86 in 10.0 mi West 17.3 mph 29.9 mph N/A   Mostly Cloudy
2:16 PM 35.6 °F 25.2 °F 6.8 °F 30% 29.85 in 10.0 mi West 18.4 mph 32.2 mph N/A   Overcast
2:36 PM 35.6 °F 25.9 °F 5.0 °F 28% 29.85 in 10.0 mi West 16.1 mph 32.2 mph N/A   Overcast
2:56 PM 35.6 °F 24.2 °F 8.6 °F 33% 29.85 in 10.0 mi West 21.9 mph 38.0 mph N/A   Overcast
3:16 PM 33.8 °F 22.8 °F 6.8 °F 32% 29.85 in 10.0 mi West 18.4 mph 36.8 mph N/A   Overcast
3:36 PM 33.8 °F 22.2 °F 8.6 °F 35% 29.86 in 10.0 mi WNW 20.7 mph 31.1 mph N/A   Overcast
3:56 PM 32.0 °F 21.2 °F 8.6 °F 38% 29.87 in 10.0 mi WNW 16.1 mph 27.6 mph N/A   Overcast
4:16 PM 32.0 °F 21.2 °F 8.6 °F 38% 29.87 in 10.0 mi WNW 16.1 mph 23.0 mph N/A   Overcast
4:36 PM 32.0 °F 21.6 °F 10.4 °F 41% 29.88 in 10.0 mi WNW 15.0 mph 23.0 mph N/A   Overcast
4:56 PM 32.0 °F 21.2 °F 10.4 °F 41% 29.88 in 10.0 mi WNW 16.1 mph 23.0 mph N/A   Overcast
5:16 PM 32.0 °F 22.1 °F 10.4 °F 41% 29.88 in 10.0 mi WNW 13.8 mph 21.9 mph N/A   Overcast
5:36 PM 32.0 °F 22.1 °F 10.4 °F 41% 29.89 in 10.0 mi West 13.8 mph 20.7 mph N/A   Overcast
5:56 PM 32.0 °F 22.5 °F 12.2 °F 44% 29.90 in 10.0 mi WNW 12.7 mph 17.3 mph N/A   Overcast
6:16 PM 32.0 °F 23.0 °F 12.2 °F 44% 29.90 in 10.0 mi WNW 11.5 mph 23.0 mph N/A   Overcast
6:36 PM 32.0 °F 23.6 °F 12.2 °F 44% 29.90 in 10.0 mi West 10.4 mph - N/A   Overcast
6:56 PM 30.2 °F 20.8 °F 14.0 °F 51% 29.91 in 10.0 mi WSW 11.5 mph - N/A   Overcast
7:16 PM 28.4 °F 19.7 °F 14.0 °F 55% 29.91 in 10.0 mi SW 9.2 mph - N/A   Mostly Cloudy
7:36 PM 28.4 °F 19.7 °F 17.6 °F 64% 29.92 in 10.0 mi SW 9.2 mph - N/A   Mostly Cloudy
7:56 PM 28.4 °F 18.5 °F 19.4 °F 69% 29.91 in 10.0 mi SW 11.5 mph - N/A   Scattered Clouds
8:16 PM 28.4 °F 19.1 °F 19.4 °F 69% 29.91 in 10.0 mi SW 10.4 mph - N/A   Scattered Clouds
8:36 PM 28.4 °F 19.1 °F 21.2 °F 74% 29.91 in 10.0 mi WSW 10.4 mph - N/A   Clear
8:56 PM 28.4 °F 19.7 °F 21.2 °F 74% 29.92 in 10.0 mi West 9.2 mph - N/A   Clear
9:16 PM 28.4 °F 19.1 °F 21.2 °F 74% 29.92 in 10.0 mi WSW 10.4 mph - N/A   Scattered Clouds
9:36 PM 26.6 °F 16.8 °F 21.2 °F 80% 29.92 in 10.0 mi West 10.4 mph - N/A   Clear
9:56 PM 28.4 °F 17.5 °F 19.4 °F 69% 29.92 in 10.0 mi West 13.8 mph - N/A   Clear
10:16 PM 26.6 °F 18.2 °F 19.4 °F 74% 29.92 in 10.0 mi West 8.1 mph - N/A   Clear
10:36 PM 26.6 °F 16.8 °F 19.4 °F 74% 29.93 in 10.0 mi West 10.4 mph - N/A   Clear
10:56 PM 26.6 °F 16.8 °F 19.4 °F 74% 29.93 in 10.0 mi West 10.4 mph - N/A   Clear
11:16 PM 26.6 °F 17.5 °F 19.4 °F 74% 29.93 in 10.0 mi West 9.2 mph - N/A   Clear
11:36 PM 26.6 °F 16.2 °F 19.4 °F 74% 29.94 in 10.0 mi West 11.5 mph - N/A   Clear
11:56 PM 26.6 °F 17.5 °F 19.4 °F 74% 29.94 in 10.0 mi West 9.2 mph - N/A   Scattered Clouds